Powrót do katalogu

STARLINK-31026

AktywnyŁącznośćVLEO
NORAD 58508·PAYLOAD·🇺🇸 United States

Wystrzelony Dec 7, 2023 z Cape Canaveral Space Force Station

Loading…

Następne Przeloty (najbliższe 24 godziny)

TLE

ŚwieżeSource: CelesTrak SupGP

Epoka: Sep 15, 2026, 02:58 UTC

1 58508C 23191A   26258.12409722  .00050647  00000+0  18341-2 0  2580
2 58508  43.0025 120.6120 0001423 273.1421 340.9620 15.27559294    18

Śledź STARLINK-31026 w czasie rzeczywistym z AllMySat

Download on the App Store